KC0AFB Weather Reports


Display with metric or nautical units.
time (UTC)temp
F
wind
direction
speed
MPH
gust
MPH
rain 1hr
in
rain 24hr
in
rain mn
in
humidity
%
barometer
mb
20260831110109 52 180 2.0 2.0 0.00 0.00 0.00 92 1012.6
20260831105607 52 203 2.0 2.0 0.00 0.00 0.00 92 1012.5
20260831105102 52 191 2.0 2.0 0.00 0.00 0.00 92 1012.5
20260831104557 52 162 2.0 2.0 0.00 0.00 0.00 92 1012.3
20260831104048 52 181 2.0 2.0 0.00 0.00 0.00 92 1012.6
20260831103543 52 188 2.0 2.0 0.00 0.00 0.00 92 1012.3
20260831103039 52 188 3.0 5.0 0.00 0.00 0.00 92 1012.2
20260831102533 52 197 2.0 2.0 0.00 0.00 0.00 92 1012.0
20260831102028 52 211 2.0 2.0 0.00 0.00 0.00 92 1012.2
20260831101523 52 158 0.0 0.0 0.00 0.00 0.00 92 1011.9
20260831101020 52 196 1.0 2.0 0.00 0.00 0.00 92 1011.9
20260831100515 52 230 1.0 2.0 0.00 0.00 0.00 92 1011.9
20260831100011 52 183 3.0 3.0 0.00 0.00 0.00 92 1011.8
20260831095509 52 190 0.0 0.0 0.00 0.00 0.00 92 1011.7
20260831095004 52 168 0.0 0.0 0.00 0.00 0.00 92 1012.0
20260831094500 52 158 0.0 1.0 0.00 0.00 0.00 91 1012.0
20260831093956 52 211 2.0 2.0 0.00 0.00 0.00 91 1011.8
20260831093450 52 187 1.0 1.0 0.00 0.00 0.00 92 1011.6
20260831092947 52 171 1.0 1.0 0.00 0.00 0.00 92 1011.8
20260831092442 52 169 0.0 0.0 0.00 0.00 0.00 92 1011.7
20260831091937 52 171 0.0 0.0 0.00 0.00 0.00 92 1011.7
20260831091433 52 186 1.0 1.0 0.00 0.00 0.00 92 1011.5
20260831090927 53 165 0.0 0.0 0.00 0.00 0.00 92 1011.5
20260831090424 53 219 2.0 2.0 0.00 0.00 0.00 92 1011.6
20260831085920 52 204 0.0 0.0 0.00 0.00 0.00 92 1011.5
20260831085414 52 183 0.0 0.0 0.00 0.00 0.00 92 1011.7
20260831084914 52 138 0.0 0.0 0.00 0.00 0.00 92 1011.7
20260831084410 53 185 1.0 1.0 0.00 0.00 0.00 92 1011.6
20260831083906 53 220 1.0 1.0 0.00 0.00 0.00 92 1011.7
20260831083401 53 201 0.0 1.0 0.00 0.00 0.00 92 1011.5
20260831082900 53 186 1.0 2.0 0.00 0.00 0.00 92 1011.7
20260831082400 53 191 1.0 1.0 0.00 0.00 0.00 92 1011.7
20260831081856 52 160 0.0 0.0 0.00 0.00 0.00 92 1011.6
20260831081351 52 135 0.0 0.0 0.00 0.00 0.00 92 1011.7
20260831080847 52 189 0.0 0.0 0.00 0.00 0.00 92 1011.5
20260831080343 53 134 0.0 0.0 0.00 0.00 0.00 92 1011.5
20260831075838 52 131 0.0 0.0 0.00 0.00 0.00 92 1011.3
20260831075332 52 109 0.0 0.0 0.00 0.00 0.00 92 1011.5
20260831074828 52 86 0.0 0.0 0.00 0.00 0.00 92 1011.5
20260831074327 53 85 0.0 0.0 0.00 0.00 0.00 92 1011.3
20260831073822 53 91 0.0 0.0 0.00 0.00 0.00 93 1011.1
20260831073316 53 64 0.0 0.0 0.00 0.00 0.00 92 1011.2
20260831072811 53 35 0.0 0.0 0.00 0.00 0.00 92 1011.4
20260831072307 53 35 0.0 0.0 0.00 0.00 0.00 92 1011.3
20260831071803 53 35 0.0 0.0 0.00 0.00 0.00 92 1011.3
20260831071256 53 339 0.0 0.0 0.00 0.00 0.00 92 1011.4
20260831070751 53 339 0.0 0.0 0.00 0.00 0.00 92 1011.4
20260831070250 54 339 0.0 0.0 0.00 0.00 0.00 92 1011.3
20260831065749 54 339 0.0 0.0 0.00 0.00 0.00 92 1011.3
20260831065247 54 339 0.0 0.0 0.00 0.00 0.00 92 1011.5
20260831064743 54 339 0.0 0.0 0.00 0.00 0.00 92 1011.5
20260831064237 54 337 0.0 0.0 0.00 0.00 0.00 92 1011.6
20260831063734 54 189 0.0 0.0 0.00 0.00 0.00 92 1011.3
20260831063228 54 335 0.0 0.0 0.00 0.00 0.00 91 1011.4
20260831062728 55 330 0.0 1.0 0.00 0.00 0.00 91 1011.8
20260831062223 55 192 2.0 2.0 0.00 0.00 0.00 91 1011.7
20260831061721 55 176 1.0 2.0 0.00 0.00 0.00 91 1011.9
20260831061217 55 238 1.0 2.0 0.00 0.00 0.00 91 1011.7
20260831060713 55 234 2.0 2.0 0.00 0.00 0.00 91 1011.6
20260831060212 56 206 0.0 0.0 0.00 0.00 0.00 91 1011.7
20260831055707 56 196 0.0 0.0 0.00 0.00 0.00 90 1011.2
20260831055201 56 211 3.0 3.0 0.00 0.00 0.00 90 1011.4
20260831054656 57 244 2.0 2.0 0.00 0.00 0.00 90 1011.2
20260831054156 57 214 4.0 5.0 0.00 0.00 0.00 90 1011.3
20260831053650 57 239 3.0 3.0 0.00 0.00 0.00 90 1011.3
20260831053149 57 276 3.0 3.0 0.00 0.00 0.00 90 1011.2
20260831052648 57 223 3.0 3.0 0.00 0.00 0.00 90 1011.1
20260831052147 57 258 2.0 2.0 0.00 0.00 0.00 90 1011.1
20260831051645 57 241 4.0 6.0 0.00 0.00 0.00 90 1010.9
20260831051144 57 259 3.0 3.0 0.00 0.00 0.00 91 1010.9
20260831050639 57 199 3.0 3.0 0.00 0.00 0.00 91 1010.7
20260831050133 57 251 3.0 3.0 0.00 0.00 0.00 91 1010.7
20260831045633 57 288 2.0 2.0 0.00 1.07 1.07 91 1010.6
20260831045128 57 295 2.0 2.0 0.00 1.07 1.07 91 1010.6
20260831044623 57 285 3.0 3.0 0.00 1.07 1.07 91 1010.6
20260831044118 57 189 1.0 2.0 0.00 1.07 1.07 91 1010.6
20260831043613 57 213 1.0 1.0 0.00 1.07 1.07 91 1010.4
20260831043103 58 145 0.0 1.0 0.00 1.07 1.07 91 1010.6
20260831042602 58 256 1.0 1.0 0.00 1.07 1.07 91 1010.5
20260831042057 58 176 1.0 1.0 0.00 1.07 1.07 91 1010.3
20260831041552 58 191 1.0 1.0 0.00 1.07 1.07 90 1010.4
20260831041051 59 257 2.0 2.0 0.00 1.07 1.07 90 1010.4
20260831040546 59 235 2.0 2.0 0.00 1.07 1.07 90 1010.4
20260831040045 59 317 0.0 0.0 0.00 1.07 1.07 89 1010.2
20260831035543 59 316 1.0 1.0 0.00 1.07 1.07 89 1010.3
20260831035039 59 267 1.0 2.0 0.00 1.07 1.07 89 1010.4
20260831034533 60 294 1.0 1.0 0.00 1.07 1.07 88 1010.4
20260831034028 60 295 2.0 2.0 0.00 1.07 1.07 88 1010.3
20260831033524 60 290 1.0 2.0 0.00 1.07 1.07 88 1010.6
20260831033019 61 194 1.0 2.0 0.00 1.07 1.07 87 1010.8
20260831032518 61 240 3.0 3.0 0.00 1.07 1.07 87 1010.7
20260831032014 61 228 4.0 5.0 0.00 1.07 1.07 87 1010.9
20260831031514 61 219 3.0 3.0 0.00 1.07 1.07 87 1010.6
20260831031013 62 227 3.0 3.0 0.00 1.07 1.07 85 1010.4
20260831030512 62 286 4.0 5.0 0.00 1.07 1.07 83 1009.9
20260831030011 62 297 5.0 6.0 0.00 1.07 1.07 83 1009.9
20260831025504 61 340 2.0 2.0 0.00 1.07 1.07 86 1010.0
20260831024959 61 166 0.0 0.0 0.00 1.07 1.07 86 1009.7
20260831024454 61 283 1.0 1.0 0.00 1.07 1.07 85 1009.8
20260831023948 61 53 0.0 1.0 0.00 1.07 1.07 85 1010.0
20260831023446 62 42 1.0 1.0 0.00 1.07 1.07 84 1009.6
20260831022942 62 39 1.0 2.0 0.00 1.07 1.07 82 1009.6
20260831022440 62 25 3.0 3.0 0.00 1.07 1.07 83 1009.8
20260831021935 62 38 2.0 3.0 0.00 1.07 1.07 82 1009.7
20260831021435 62 320 4.0 5.0 0.00 1.07 1.07 81 1009.7
20260831020931 62 311 4.0 5.0 0.00 1.07 1.07 83 1009.9
20260831020430 62 359 5.0 7.0 0.00 1.07 1.07 83 1009.3
20260831015925 61 322 5.0 7.0 0.00 1.07 1.07 84 1009.5
20260831015421 61 279 9.0 11.0 0.00 1.07 1.07 85 1010.0
20260831014917 61 261 9.0 14.0 0.00 1.07 1.07 85 1010.0
20260831014416 62 317 11.0 15.0 0.00 1.07 1.07 85 1010.2
20260831013912 61 0 11.0 16.0 0.00 1.07 1.07 88 1010.2
20260831013408 61 308 9.0 11.0 0.00 1.07 1.07 89 1010.3
20260831012902 62 317 11.0 16.0 0.00 1.07 1.07 90 1010.3
20260831012357 62 273 11.0 15.0 0.05 1.07 1.07 90 1010.2
20260831011852 62 299 15.0 17.0 0.05 1.07 1.07 91 1010.1
20260831011346 62 308 9.0 11.0 0.00 1.06 1.06 92 1009.9
20260831010837 62 295 11.0 13.0 0.14 1.06 1.06 93 1010.3
20260831010336 62 300 10.0 14.0 0.19 1.06 1.06 93 1010.6
20260831005832 62 297 12.0 16.0 0.24 1.04 1.04 94 1010.2
20260831005328 63 286 15.0 17.0 0.47 1.03 1.03 94 1010.2
20260831004827 64 274 9.0 11.0 1.84 1.00 1.00 93 1010.5
20260831004324 64 288 11.0 14.0 3.00 0.96 0.96 93 1010.4
20260831003819 65 285 20.0 25.0 1.79 0.74 0.74 92 1010.1
20260831003316 68 256 13.0 23.0 0.00 0.44 0.44 84 1010.0
20260831002815 70 265 10.0 13.0 0.00 0.44 0.44 81 1009.5
20260831002308 75 247 8.0 10.0 0.00 0.44 0.44 83 1008.9
20260831001804 75 170 6.0 7.0 0.00 0.44 0.44 84 1007.2
20260831001259 75 142 4.0 5.0 0.00 0.44 0.44 84 1006.8
20260831000757 76 122 3.0 5.0 0.00 0.44 0.44 83 1006.7
20260831000257 76 115 6.0 7.0 0.00 0.44 0.44 83 1006.6
20260830235755 76 125 7.0 9.0 0.00 0.44 0.44 82 1006.4
20260830235250 77 122 8.0 9.0 0.00 0.44 0.44 82 1006.5
20260830234745 77 97 8.0 10.0 0.00 0.44 0.44 81 1006.2
20260830234241 77 153 7.0 8.0 0.00 0.44 0.44 81 1006.2
20260830233737 77 143 8.0 10.0 0.00 0.44 0.44 81 1006.3
20260830233232 77 91 4.0 5.0 0.00 0.44 0.44 80 1006.5
20260830232727 77 108 4.0 6.0 0.00 0.44 0.44 80 1006.6
20260830232223 78 131 7.0 8.0 0.00 0.44 0.44 79 1006.6
20260830231720 78 114 5.0 8.0 0.00 0.44 0.44 79 1006.7
20260830231219 78 98 7.0 8.0 0.00 0.44 0.44 79 1006.6
20260830230714 78 81 5.0 7.0 0.00 0.44 0.44 79 1006.4
20260830230209 78 85 9.0 10.0 0.00 0.44 0.44 78 1006.5
20260830225703 78 127 5.0 6.0 0.00 0.44 0.44 78 1006.4
20260830225158 78 93 6.0 7.0 0.00 0.44 0.44 77 1006.3
20260830224657 79 135 5.0 7.0 0.00 0.44 0.44 77 1006.2
20260830224153 80 100 9.0 11.0 0.00 0.44 0.44 76 1006.2
20260830223649 79 78 7.0 10.0 0.00 0.44 0.44 77 1006.2
20260830223144 80 106 7.0 9.0 0.00 0.44 0.44 77 1006.5
20260830222639 79 80 6.0 9.0 0.00 0.44 0.44 76 1006.5
20260830222134 79 109 7.0 8.0 0.00 0.44 0.44 77 1006.5
20260830221629 80 140 6.0 7.0 0.00 0.44 0.44 76 1006.7
20260830221120 79 94 9.0 10.0 0.00 0.44 0.44 76 1006.6
20260830220615 79 102 11.0 14.0 0.00 0.44 0.44 77 1006.4
20260830220108 80 109 10.0 13.0 0.00 0.44 0.44 76 1006.6
20260830215607 80 106 7.0 10.0 0.00 0.44 0.44 75 1006.4
20260830215101 80 99 7.0 9.0 0.00 0.44 0.44 76 1006.4
20260830214556 79 73 7.0 9.0 0.00 0.44 0.44 77 1006.5
20260830214051 80 130 5.0 7.0 0.00 0.44 0.44 76 1006.8
20260830213545 81 82 7.0 8.0 0.00 0.44 0.44 74 1006.5
20260830213041 80 75 5.0 6.0 0.00 0.44 0.44 75 1006.9
20260830212537 81 60 7.0 9.0 0.00 0.44 0.44 74 1006.7
20260830212032 80 105 7.0 8.0 0.00 0.44 0.44 76 1006.8
20260830211526 81 83 8.0 9.0 0.00 0.44 0.44 76 1007.4
20260830211020 80 82 4.0 7.0 0.00 0.44 0.44 77 1007.5
20260830210515 80 102 7.0 8.0 0.00 0.44 0.44 78 1007.5
20260830210014 80 70 7.0 8.0 0.00 0.44 0.44 78 1007.8
20260830205507 80 101 5.0 6.0 0.00 0.44 0.44 78 1007.8
20260830205003 79 137 4.0 6.0 0.00 0.44 0.44 79 1007.5
20260830204501 79 102 5.0 7.0 0.00 0.44 0.44 79 1007.8
20260830203956 79 63 3.0 3.0 0.00 0.44 0.44 79 1008.1
20260830203452 79 78 6.0 7.0 0.00 0.44 0.44 79 1007.8
20260830202951 80 68 5.0 6.0 0.00 0.44 0.44 77 1007.9
20260830202446 80 55 7.0 8.0 0.00 0.44 0.44 77 1007.7
20260830201943 79 63 5.0 6.0 0.00 0.44 0.44 77 1007.9
20260830201441 79 48 4.0 6.0 0.00 0.44 0.44 79 1007.8
20260830200937 79 67 7.0 9.0 0.00 0.44 0.44 77 1007.8
20260830200437 80 84 5.0 7.0 0.00 0.44 0.44 79 1007.8
20260830195932 79 110 5.0 6.0 0.00 0.44 0.44 76 1008.1
20260830195427 79 58 5.0 7.0 0.00 0.44 0.44 76 1008.0
20260830194925 78 64 5.0 6.0 0.00 0.44 0.44 78 1007.7
20260830194424 78 85 6.0 8.0 0.00 0.44 0.44 78 1008.1
20260830193924 78 74 5.0 7.0 0.00 0.44 0.44 78 1007.9
20260830193423 79 116 6.0 7.0 0.00 0.44 0.44 76 1008.0
20260830192919 78 93 4.0 5.0 0.00 0.44 0.44 79 1008.2
20260830192414 78 126 7.0 8.0 0.00 0.44 0.44 78 1008.0
20260830191909 78 100 4.0 5.0 0.00 0.44 0.44 78 1008.1
20260830191408 77 68 5.0 6.0 0.00 0.44 0.44 80 1008.2
20260830190904 78 111 7.0 8.0 0.00 0.44 0.44 79 1008.3
20260830190359 78 84 4.0 5.0 0.00 0.44 0.44 80 1008.4
20260830185858 77 71 4.0 6.0 0.00 0.44 0.44 81 1008.3
20260830185353 77 54 5.0 8.0 0.00 0.44 0.44 82 1008.2
20260830184848 77 79 8.0 9.0 0.00 0.44 0.44 82 1008.4
20260830184347 76 86 3.0 3.0 0.00 0.44 0.44 83 1008.5
20260830183842 76 76 4.0 7.0 0.00 0.44 0.44 84 1008.7
20260830183336 76 62 4.0 5.0 0.00 0.44 0.44 84 1008.6
20260830182827 76 58 6.0 7.0 0.00 0.44 0.44 84 1008.7
20260830182322 76 61 5.0 6.0 0.00 0.44 0.44 84 1008.9
20260830181818 75 86 8.0 9.0 0.00 0.44 0.44 84 1008.9
20260830181314 75 60 6.0 7.0 0.00 0.44 0.44 84 1009.0
20260830180813 75 77 6.0 8.0 0.00 0.44 0.44 85 1009.0
20260830180307 75 63 5.0 6.0 0.00 0.44 0.44 86 1009.2
20260830175802 74 142 5.0 6.0 0.00 0.44 0.44 87 1009.3
20260830175257 74 131 6.0 7.0 0.00 0.44 0.44 87 1009.3
20260830174756 74 101 5.0 7.0 0.00 0.44 0.44 87 1009.4
20260830174252 74 127 5.0 6.0 0.00 0.44 0.44 88 1009.4
20260830173751 74 79 3.0 3.0 0.00 0.44 0.44 87 1009.5
20260830173247 73 132 6.0 8.0 0.00 0.44 0.44 87 1009.8
20260830172743 73 81 4.0 6.0 0.00 0.44 0.44 88 1009.4
20260830172240 73 104 6.0 7.0 0.00 0.44 0.44 88 1009.7
20260830171735 73 54 5.0 7.0 0.00 0.44 0.44 89 1009.6
20260830171230 73 115 6.0 7.0 0.00 0.44 0.44 89 1009.5
20260830170725 73 109 7.0 8.0 0.00 0.44 0.44 88 1009.6
20260830170224 73 142 4.0 6.0 0.00 0.44 0.44 89 1009.3
20260830165723 73 135 6.0 8.0 0.00 0.44 0.44 88 1009.3
20260830165219 73 153 6.0 8.0 0.00 0.44 0.44 89 1009.4
20260830164715 72 89 7.0 8.0 0.00 0.44 0.44 89 1009.2
20260830164211 72 80 6.0 7.0 0.00 0.44 0.44 90 1009.2
20260830163708 72 91 8.0 9.0 0.00 0.44 0.44 90 1009.6
20260830163203 72 141 5.0 6.0 0.00 0.44 0.44 90 1009.3
20260830162657 72 93 5.0 7.0 0.00 0.44 0.44 91 1009.2
20260830162153 72 137 7.0 8.0 0.00 0.44 0.44 91 1009.2
20260830161648 71 83 4.0 6.0 0.00 0.44 0.44 92 1009.4
20260830161143 71 59 5.0 6.0 0.00 0.44 0.44 92 1009.0
20260830160640 71 69 4.0 5.0 0.00 0.44 0.44 92 1009.0
20260830160139 71 64 6.0 7.0 0.00 0.44 0.44 92 1009.0
20260830155636 70 113 4.0 5.0 0.00 0.44 0.44 93 1009.7
20260830155131 70 61 3.0 5.0 0.00 0.44 0.44 93 1009.5
20260830154626 70 118 3.0 3.0 0.00 0.44 0.44 93 1009.3
20260830154122 70 91 3.0 3.0 0.00 0.44 0.44 93 1009.5
20260830153618 69 109 4.0 5.0 0.00 0.44 0.44 94 1009.5
20260830153118 69 122 3.0 5.0 0.00 0.44 0.44 94 1009.3
20260830152618 69 84 2.0 2.0 0.00 0.44 0.44 94 1009.6
20260830152117 69 137 5.0 7.0 0.00 0.44 0.44 94 1009.4
20260830151612 69 98 5.0 6.0 0.00 0.44 0.44 94 1009.5
20260830151107 69 125 5.0 6.0 0.00 0.44 0.44 94 1009.4
20260830150606 69 124 3.0 3.0 0.00 0.44 0.44 94 1009.6
20260830150101 69 124 3.0 3.0 0.00 0.44 0.44 94 1009.5
20260830145601 69 143 6.0 8.0 0.00 0.44 0.44 94 1009.2
20260830145056 69 110 6.0 6.0 0.00 0.44 0.44 94 1009.0
20260830144552 69 95 6.0 8.0 0.00 0.44 0.44 94 1009.2
20260830144048 68 112 3.0 5.0 0.00 0.44 0.44 94 1009.0
20260830143543 68 96 6.0 7.0 0.00 0.44 0.44 94 1009.2
20260830143041 68 90 6.0 7.0 0.00 0.44 0.44 94 1009.3
20260830142537 68 113 7.0 9.0 0.00 0.44 0.44 94 1009.2
20260830142032 68 85 5.0 5.0 0.00 0.44 0.44 94 1009.4
20260830141527 68 132 5.0 6.0 0.00 0.44 0.44 94 1009.3
20260830141022 68 120 5.0 7.0 0.00 0.44 0.44 94 1009.5
20260830140521 68 115 7.0 7.0 0.00 0.44 0.44 94 1009.4
20260830140018 68 99 6.0 7.0 0.00 0.44 0.44 94 1009.4
20260830135512 68 113 5.0 8.0 0.00 0.44 0.44 94 1009.4
20260830135007 68 103 4.0 5.0 0.00 0.44 0.44 94 1009.5
20260830134503 68 100 7.0 7.0 0.00 0.44 0.44 94 1009.6
20260830133958 68 93 6.0 8.0 0.00 0.44 0.44 94 1009.3
20260830133454 68 100 6.0 7.0 0.00 0.44 0.44 94 1009.4
20260830132949 68 74 7.0 9.0 0.00 0.44 0.44 94 1009.2
20260830132445 68 65 8.0 11.0 0.00 0.44 0.44 94 1009.3
20260830131944 68 75 7.0 8.0 0.00 0.44 0.44 94 1009.5
20260830131443 68 76 4.0 7.0 0.00 0.44 0.44 95 1009.4
20260830130938 68 89 5.0 6.0 0.00 0.44 0.44 95 1009.7
20260830130434 67 85 4.0 6.0 0.00 0.44 0.44 95 1009.5
20260830125932 67 75 3.0 3.0 0.00 0.44 0.44 95 1009.6
20260830125428 67 73 4.0 5.0 0.00 0.44 0.44 95 1009.6
20260830124926 67 85 3.0 5.0 0.00 0.44 0.44 95 1009.4
20260830124421 67 76 5.0 6.0 0.00 0.44 0.44 95 1009.4
20260830123918 67 48 7.0 8.0 0.00 0.44 0.44 95 1009.6
20260830123414 67 62 3.0 3.0 0.00 0.44 0.44 95 1009.6
20260830122912 67 60 4.0 5.0 0.00 0.44 0.44 95 1009.6
20260830122407 67 44 3.0 3.0 0.00 0.44 0.44 95 1009.6
20260830121906 67 71 4.0 5.0 0.00 0.44 0.44 95 1009.2
20260830121402 67 53 5.0 8.0 0.00 0.44 0.44 95 1009.2
20260830120856 67 58 4.0 5.0 0.00 0.44 0.44 95 1009.2
20260830120352 67 65 6.0 7.0 0.00 0.44 0.44 95 1009.3
20260830115848 67 61 5.0 6.0 0.00 0.44 0.44 95 1009.0
20260830115344 67 54 5.0 7.0 0.00 0.44 0.44 95 1009.0
20260830114839 67 41 4.0 7.0 0.00 0.44 0.44 95 1009.2
20260830114336 67 68 4.0 6.0 0.00 0.44 0.44 95 1009.2
20260830113831 67 48 5.0 7.0 0.00 0.44 0.44 95 1009.3
20260830113326 67 56 5.0 7.0 0.00 0.44 0.44 95 1009.4
20260830112822 67 68 3.0 3.0 0.00 0.44 0.44 95 1009.2
20260830112317 67 72 4.0 6.0 0.00 0.44 0.44 95 1009.3
20260830111813 67 56 5.0 7.0 0.00 0.44 0.44 95 1008.9
20260830111309 67 84 3.0 5.0 0.00 0.44 0.44 95 1008.8
20260830110808 67 67 3.0 3.0 0.00 0.44 0.44 95 1008.8
20260830110305 67 89 3.0 5.0 0.00 0.44 0.44 95 1008.9